Wind_Speed
9 8 7 7 7 6 5 5 5 4 5 5 5 5 5 5 5 4 3 2 2 2 2 3 3 3 2 2 3 3 4 4 4 4 5 5 5 6 6 6 6 6 7
9 8 7 7 7 6 5 5 4 4 5 6 6 6 5 5 5 4 3 3 2 2 2 3 3 3 3 3 3 3 4 4 5 5 4 5 5 6 6 7 7 7 7
8 8 7 7 7 6 5 5 5 5 5 6 5 5 5 5 5 4 4 3 3 3 3 3 3 4 4 4 5 5 5 5 5 5 5 5 6 6 6 7 7 7 8
8 7 7 7 7 6 6 5 5 5 5 5 5 5 5 5 5 4 4 4 4 4 3 3 3 4 4 5 5 5 5 5 5 5 6 6 6 7 7 7 7 8 8
7 7 6 5 6 6 6 6 6 5 5 6 6 5 5 5 4 4 4 4 4 4 4 3 3 4 4 5 5 5 5 6 6 6 7 7 7 7 8 8 8 8 9
6 6 6 5 5 5 5 6 6 5 5 6 6 6 5 5 4 4 4 5 5 4 5 5 5 5 6 6 6 6 6 6 6 7 8 8 8 8 9 9 9 10 10
6 6 5 5 5 5 5 6 7 7 6 7 7 7 6 6 5 5 6 6 6 6 6 6 7 7 7 7 7 7 8 8 8 8 9 9 9 10 10 10 10 11 11
5 6 5 5 5 6 6 6 7 7 7 7 7 7 7 6 6 6 7 7 7 7 7 7 8 8 8 8 9 9 9 10 10 11 11 11 11 11 11 11 11 12 12
5 6 5 5 6 6 6 6 6 7 7 7 8 8 8 7 8 8 9 9 9 9 9 9 9 9 10 10 10 11 11 11 12 12 13 13 13 12 12 13 13 13 13
5 5 5 6 6 7 7 7 7 7 7 7 8 8 9 8 9 9 9 10 10 10 10 10 10 11 12 12 12 13 13 14 14 14 14 14 14 14 14 14 14 14 14
5 5 4 4 5 6 7 8 8 8 8 9 9 9 10 10 10 10 10 11 11 11 12 12 13 13 13 14 14 14 15 15 16 16 16 16 15 15 15 15 15 15 15
5 5 4 5 6 7 7 8 9 9 9 9 9 10 11 11 12 12 12 13 13 14 14 14 14 15 15 16 16 16 16 17 17 17 17 17 17 17 17 16 16 16 16
7 7 7 7 8 8 9 9 10 10 10 10 10 11 12 12 12 13 13 14 15 16 16 16 17 17 17 17 17 18 18 18 18 18 18 18 18 18 18 18 17 17 17
9 9 9 9 9 10 10 11 11 11 12 13 13 13 13 14 14 14 15 15 16 17 18 18 19 19 19 19 19 19 19 19 19 20 19 19 19 19 19 19 19 18 18
10 11 11 11 12 12 12 12 13 13 14 15 15 15 16 16 16 17 17 18 18 18 19 21 22 21 21 21 20 20 20 20 20 21 21 21 21 20 20 20 20 20 20
12 12 13 13 13 14 15 15 15 16 16 17 17 18 18 18 18 19 20 21 21 21 21 22 22 23 23 22 22 21 21 21 22 22 22 22 21 21 20 20 21 21 22
14 15 15 15 16 16 16 17 18 18 19 19 20 20 20 20 21 22 22 23 23 23 23 23 23 24 24 24 24 23 22 22 23 23 23 22 22 22 22 22 22 23 23
17 17 18 18 18 18 19 19 19 20 20 21 21 22 22 23 23 24 24 24 24 24 24 23 24 24 25 26 25 25 25 24 24 24 25 25 25 24 24 25 25 24 25
20 20 20 20 20 20 20 21 21 22 22 22 23 23 24 24 24 25 26 26 26 26 26 26 25 26 26 26 27 28 28 27 27 27 27 27 27 27 27 27 27 27 27
22 22 22 22 21 21 22 22 23 23 24 24 24 25 25 25 26 27 27 28 28 28 27 26 27 27 28 29 30 30 29 30 29 29 30 30 30 30 29 29 30 30 30
24 24 24 23 23 22 22 23 24 25 25 26 26 27 27 27 28 29 28 28 28 29 28 28 29 29 30 30 30 31 31 31 32 32 31 32 32 31 31 31 32 32 32
26 26 26 26 26 25 25 25 25 25 26 27 28 28 27 28 29 29 29 30 30 30 30 30 30 31 31 32 32 32 33 33 33 34 34 34 34 33 33 33 34 34 34
29 29 29 29 28 28 28 27 27 27 28 29 29 29 29 29 30 30 30 31 31 31 31 32 32 33 32 33 34 34 35 35 35 35 36 36 36 36 36 36 36 36 36
31 31 30 30 29 29 30 30 29 30 31 30 30 30 30 30 31 31 31 31 32 33 33 33 34 33 33 33 34 35 35 36 35 36 37 38 38 38 38 38 38 37 37
32 32 32 31 31 31 31 31 31 31 31 31 31 31 32 31 32 33 33 33 33 33 34 33 32 32 33 34 34 35 36 36 37 38 39 40 39 39 39 39 39 38 38
33 33 33 33 33 32 32 32 33 32 32 31 32 33 33 33 34 35 34 33 33 33 33 33 33 34 35 36 36 37 38 38 39 39 39 40 40 40 40 39 39 39 39
Wind_Direction
169 172 175 180 179 186 185 178 185 185 192 188 181 176 171 179 189 192 208 215 235 247 256 274 279 278 274 271 274 274 272 276 278 273 270 267 267 268 272 274 275 272 270
164 167 176 177 176 184 186 185 191 188 193 195 191 189 189 187 189 200 215 223 238 273 279 281 287 287 282 279 278 282 281 278 280 280 277 274 271 272 273 275 278 275 264
168 169 171 177 174 172 178 186 193 191 190 191 192 194 199 197 208 223 237 248 261 272 270 275 276 276 275 274 272 276 283 280 279 278 279 280 274 274 281 280 284 281 270
170 170 176 178 181 183 187 186 193 191 190 189 193 204 208 210 220 240 254 263 272 263 269 278 268 273 276 274 271 274 276 278 281 284 283 283 279 278 277 277 280 281 281
171 172 179 185 189 191 192 193 193 196 199 195 202 213 213 218 230 246 261 269 275 267 270 276 268 270 277 280 280 278 274 275 283 279 282 282 281 282 277 276 278 280 282
176 182 187 188 193 198 198 201 201 201 204 207 216 222 228 234 237 247 257 267 278 277 266 266 268 271 277 277 279 275 272 279 285 285 284 284 282 281 277 277 278 279 280
182 185 190 195 198 205 214 218 217 213 216 223 229 231 238 242 245 256 262 268 279 278 273 273 270 275 280 278 278 279 277 277 281 284 285 284 284 278 278 277 277 278 278
194 202 211 210 210 213 221 226 220 218 222 230 234 236 242 246 249 259 262 263 265 269 273 275 278 282 282 282 280 284 282 280 281 284 286 285 283 283 280 278 275 277 277
205 207 214 220 218 222 228 224 226 227 226 231 237 244 255 252 254 260 263 262 263 266 270 274 276 280 284 284 284 284 281 281 282 284 285 284 283 283 282 280 277 277 277
228 223 225 228 228 229 228 232 235 237 240 244 245 248 254 257 259 263 263 265 268 273 275 274 272 275 278 281 283 283 282 280 280 282 284 283 281 281 282 282 280 278 277
246 242 233 225 226 232 235 240 239 248 251 254 254 255 257 260 265 267 267 270 272 272 275 276 274 274 277 277 279 281 282 281 281 280 280 280 280 279 281 282 282 280 277
252 249 249 247 246 244 244 246 249 253 256 258 259 262 266 267 270 269 270 274 274 278 279 278 280 278 278 277 277 277 279 280 282 280 278 278 278 277 279 280 281 280 277
258 257 254 254 251 247 250 254 256 257 258 260 262 264 269 271 273 274 274 278 279 279 279 279 278 279 278 277 276 276 278 280 281 279 278 276 276 277 276 277 279 280 279
264 263 262 260 259 258 259 259 259 260 262 262 263 265 269 273 276 277 278 281 282 281 280 279 278 279 280 277 277 277 278 278 280 281 279 277 277 276 276 276 276 278 279
266 265 264 264 265 265 265 264 262 262 264 267 269 271 273 276 278 279 280 281 283 283 282 279 278 279 279 278 277 275 276 277 279 280 278 278 278 277 276 275 277 278 280
274 271 269 269 271 268 266 265 264 267 269 271 272 274 274 277 277 279 281 282 283 282 283 282 279 278 278 279 279 277 278 279 278 277 277 278 277 277 277 278 277 277 278
273 274 274 274 272 271 270 268 268 270 271 271 272 273 274 276 277 279 282 283 284 283 284 282 279 278 277 278 278 276 278 279 278 276 276 275 276 276 277 278 278 278 277
272 273 273 274 274 271 269 269 269 271 273 272 274 275 275 277 279 279 280 282 285 285 284 282 280 280 280 277 276 274 275 277 278 275 274 275 275 275 275 276 277 278 279
273 273 274 273 273 271 269 269 270 271 273 274 275 274 274 276 278 280 280 282 283 285 284 282 280 279 280 276 277 276 275 275 275 275 274 274 274 273 275 276 277 278 279
273 274 274 272 272 273 270 269 270 271 272 274 276 276 276 278 279 279 280 281 282 282 282 282 281 279 279 278 278 278 276 273 273 274 274 273 273 273 273 274 275 276 278
274 275 274 273 272 275 276 274 271 271 272 275 276 277 279 280 280 280 282 281 281 281 280 281 281 280 278 278 278 278 277 275 273 274 273 273 274 274 274 274 275 275 276
274 274 275 275 275 274 275 276 276 276 274 275 277 278 279 279 281 281 281 282 282 281 280 280 280 280 279 278 276 276 275 274 275 275 273 272 272 273 273 274 275 274 274
274 273 273 273 274 274 274 274 274 275 278 278 279 278 278 280 282 282 283 283 282 282 281 281 280 279 279 278 276 276 275 274 275 275 273 273 273 274 274 274 274 274 273
273 273 272 272 272 273 274 273 273 274 277 279 280 280 281 282 282 283 284 283 282 280 280 279 280 281 280 279 279 277 276 275 276 277 276 274 273 274 274 274 273 273 272
273 271 270 271 271 271 273 273 273 275 278 280 280 280 280 281 282 283 283 283 282 281 280 278 279 281 281 280 281 279 278 278 278 278 278 276 274 274 274 274 274 273 271
272 271 270 271 271 271 273 274 274 275 277 279 279 279 279 280 281 282 282 282 282 282 282 281 280 281 281 281 280 281 281 280 280 279 278 278 276 275 274 274 273 272 270
Height
5898 5899 5900 5901 5902 5903 5904 5904 5904 5905 5906 5906 5906 5906 5907 5907 5908 5908 5908 5908 5908 5908 5907 5907 5907 5906 5906 5906 5905 5905 5905 5904 5904 5903 5903 5902 5902 5902 5902 5901 5901 5900 5900
5898 5899 5900 5901 5902 5903 5903 5904 5904 5905 5905 5906 5906 5907 5907 5907 5908 5908 5908 5908 5907 5907 5906 5906 5906 5906 5905 5905 5904 5904 5904 5903 5903 5902 5902 5901 5900 5900 5900 5900 5899 5898 5898
5898 5899 5900 5901 5902 5902 5903 5904 5904 5904 5905 5905 5906 5906 5906 5907 5907 5907 5907 5907 5906 5906 5906 5905 5905 5905 5904 5904 5903 5903 5902 5902 5902 5901 5901 5900 5899 5899 5898 5898 5897 5897 5897
5898 5899 5900 5901 5902 5902 5903 5903 5904 5904 5904 5905 5905 5906 5906 5906 5906 5906 5906 5906 5905 5905 5905 5904 5904 5903 5903 5903 5902 5902 5901 5901 5900 5900 5899 5899 5898 5897 5897 5896 5896 5895 5895
5898 5899 5900 5901 5901 5902 5902 5903 5903 5904 5904 5904 5904 5905 5905 5905 5905 5905 5905 5905 5904 5904 5903 5903 5902 5902 5902 5901 5901 5900 5900 5899 5899 5898 5898 5897 5896 5895 5895 5894 5894 5894 5893
5897 5898 5899 5900 5900 5901 5901 5902 5902 5903 5903 5903 5903 5903 5904 5904 5904 5904 5904 5903 5903 5902 5902 5901 5901 5901 5901 5900 5899 5899 5898 5898 5897 5897 5896 5895 5894 5893 5893 5892 5892 5892 5891
5896 5897 5898 5899 5899 5900 5900 5900 5901 5901 5901 5902 5902 5902 5902 5902 5902 5902 5902 5902 5901 5901 5900 5900 5899 5899 5899 5898 5898 5897 5896 5896 5895 5895 5894 5893 5892 5891 5891 5890 5889 5889 5888
5896 5897 5897 5897 5898 5898 5899 5899 5899 5899 5899 5900 5900 5900 5901 5901 5900 5901 5900 5900 5900 5899 5899 5898 5898 5897 5897 5896 5896 5895 5894 5894 5893 5893 5892 5891 5890 5889 5888 5887 5887 5886 5885
5895 5895 5895 5895 5896 5897 5897 5897 5898 5898 5898 5898 5898 5899 5899 5898 5899 5899 5898 5898 5898 5897 5897 5896 5895 5895 5894 5893 5893 5892 5892 5891 5890 5889 5889 5888 5887 5886 5886 5885 5884 5883 5882
5893 5893 5893 5893 5894 5895 5895 5895 5896 5896 5896 5896 5896 5896 5897 5896 5896 5896 5896 5896 5895 5895 5894 5893 5893 5892 5891 5891 5890 5889 5888 5888 5887 5886 5885 5885 5884 5883 5882 5881 5880 5879 5879
5892 5891 5891 5891 5892 5892 5893 5893 5893 5893 5893 5893 5893 5893 5893 5893 5893 5894 5893 5893 5892 5892 5891 5890 5889 5889 5888 5887 5886 5885 5885 5884 5883 5882 5881 5881 5880 5879 5878 5878 5877 5876 5875
5890 5890 5890 5890 5890 5890 5890 5890 5890 5890 5890 5890 5890 5890 5890 5890 5890 5889 5890 5889 5889 5888 5888 5887 5886 5885 5884 5883 5882 5881 5881 5880 5879 5878 5877 5876 5876 5875 5874 5873 5872 5872 5871
5888 5888 5887 5887 5888 5888 5888 5887 5887 5887 5887 5887 5887 5887 5886 5886 5886 5886 5886 5885 5885 5885 5884 5883 5882 5881 5880 5879 5878 5877 5876 5875 5874 5872 5872 5871 5871 5870 5869 5869 5868 5867 5866
5885 5885 5885 5885 5885 5885 5885 5884 5884 5884 5884 5884 5883 5883 5882 5882 5882 5881 5881 5881 5881 5880 5879 5878 5877 5876 5875 5874 5873 5872 5872 5870 5869 5868 5867 5866 5866 5865 5864 5864 5863 5862 5861
5881 5881 5881 5882 5881 5881 5881 5881 5881 5880 5880 5880 5879 5879 5878 5878 5877 5877 5877 5876 5876 5875 5875 5873 5872 5871 5870 5869 5868 5867 5866 5865 5864 5863 5862 5861 5860 5859 5859 5858 5857 5857 5856
5878 5877 5877 5877 5877 5877 5877 5877 5876 5876 5876 5875 5875 5874 5873 5873 5873 5872 5871 5871 5870 5870 5869 5868 5867 5866 5864 5864 5862 5861 5860 5859 5858 5857 5856 5855 5855 5854 5853 5852 5852 5851 5850
5874 5873 5873 5873 5872 5872 5872 5872 5871 5871 5870 5870 5869 5869 5868 5868 5867 5866 5865 5865 5864 5863 5862 5861 5860 5859 5858 5857 5856 5855 5854 5853 5852 5851 5850 5849 5848 5847 5847 5846 5845 5844 5843
5868 5868 5868 5867 5867 5867 5866 5866 5866 5865 5864 5864 5863 5862 5862 5861 5861 5860 5859 5858 5857 5856 5855 5854 5852 5851 5851 5850 5849 5848 5847 5846 5845 5844 5843 5842 5841 5840 5840 5839 5838 5837 5836
5863 5862 5861 5861 5861 5860 5860 5860 5859 5858 5858 5857 5857 5856 5855 5854 5853 5853 5852 5851 5850 5849 5848 5847 5845 5844 5843 5842 5841 5840 5840 5839 5838 5836 5835 5834 5834 5833 5832 5831 5830 5829 5828
5856 5855 5854 5854 5854 5854 5853 5853 5852 5851 5851 5850 5849 5848 5847 5846 5846 5845 5844 5843 5842 5841 5840 5839 5838 5836 5835 5834 5833 5832 5831 5830 5829 5828 5827 5826 5825 5824 5823 5823 5822 5821 5820
5848 5847 5847 5847 5847 5847 5846 5845 5844 5844 5843 5843 5842 5840 5840 5839 5838 5837 5836 5834 5833 5832 5831 5830 5829 5828 5827 5825 5824 5823 5822 5821 5820 5819 5818 5817 5816 5815 5814 5813 5812 5811 5811
5840 5839 5839 5839 5839 5839 5838 5838 5837 5836 5835 5834 5834 5833 5832 5831 5830 5828 5827 5826 5825 5823 5822 5821 5820 5818 5817 5816 5815 5814 5813 5812 5811 5810 5808 5808 5807 5806 5805 5804 5803 5801 5800
5832 5831 5831 5831 5830 5830 5830 5829 5828 5828 5827 5826 5825 5824 5823 5822 5820 5819 5818 5816 5815 5814 5813 5812 5810 5809 5808 5806 5805 5804 5802 5801 5801 5799 5798 5797 5796 5795 5794 5793 5792 5790 5789
5823 5822 5822 5821 5821 5821 5821 5821 5820 5818 5818 5817 5816 5815 5814 5813 5811 5810 5808 5807 5805 5804 5803 5801 5800 5799 5797 5795 5794 5793 5791 5790 5789 5788 5786 5786 5785 5784 5783 5781 5780 5779 5778
5813 5813 5812 5812 5812 5812 5811 5811 5810 5810 5809 5808 5807 5806 5805 5803 5802 5800 5798 5797 5795 5793 5792 5791 5789 5788 5786 5784 5783 5781 5780 5779 5777 5776 5774 5773 5773 5772 5771 5770 5768 5767 5766
5803 5803 5802 5802 5802 5802 5801 5801 5800 5800 5800 5799 5797 5796 5795 5794 5792 5790 5788 5787 5785 5784 5782 5780 5779 5777 5776 5774 5772 5770 5769 5767 5766 5765 5763 5761 5760 5759 5759 5758 5756 5755 5754